Date,TemperatureHighF,TemperatureAvgF,TemperatureLowF,DewpointHighF,DewpointAvgF,DewpointLowF,HumidityHigh,HumidityAvg,HumidityLow,PressureMaxIn,PressureMinIn,WindSpeedMaxMPH,WindSpeedAvgMPH,GustSpeedMaxMPH,PrecipitationSumIn
2015-1-1,32.0,22.8,15.0,20.0,14.3,8.0,78,70,58,30.21,30.02,10,6,23,0.00
2015-1-2,36.0,26.7,16.0,27.0,21.4,14.0,93,81,66,30.31,30.10,2,0,32,0.00
2015-1-3,33.0,31.3,29.0,33.0,30.2,26.0,99,95,84,30.11,29.79,5,1,32,0.43
2015-1-4,32.0,16.4,-1.0,31.0,12.3,-7.0,96,84,69,30.61,29.80,11,7,32,0.10
2015-1-5,8.0,3.3,-4.0,6.0,-1.4,-8.0,90,80,71,30.68,30.31,6,2,88,0.00
2015-1-6,12.0,6.9,-1.0,6.0,3.0,-4.0,95,84,74,30.50,30.27,10,3,80,0.00
2015-1-7,7.0,-2.1,-11.0,3.0,-8.3,-14.0,84,74,67,30.88,30.44,12,6,175,0.00
2015-1-8,8.0,-4.1,-12.0,3.0,-8.5,-15.0,84,80,75,30.72,29.94,13,6,32,0.00
2015-1-9,2.0,1.0,-3.0,-2.0,-4.1,-7.0,84,79,74,30.48,30.46,4,2,32,0.00
2015-1-10,24.0,11.6,-4.0,14.0,4.3,-8.0,87,72,64,30.46,30.18,9,4,32,0.00
2015-1-11,33.0,26.9,20.0,28.0,19.6,11.0,96,74,60,30.26,30.18,7,3,159,0.00
2015-1-12,28.0,15.2,5.0,26.0,7.1,-3.0,93,70,58,30.73,30.25,8,4,175,0.00
2015-1-13,19.0,8.1,-1.0,13.0,4.2,-5.0,93,84,76,30.73,30.50,4,1,85,0.01
2015-1-14,25.0,13.8,-4.0,19.0,9.4,-7.0,90,83,76,30.46,30.17,7,3,89,0.01
2015-1-15,37.0,27.4,17.0,30.0,22.7,14.0,91,82,72,30.17,30.00,9,4,32,0.09
2015-1-16,37.0,29.5,20.0,32.0,26.8,18.0,97,89,81,30.17,29.90,7,3,32,0.06
2015-1-17,43.0,38.2,33.0,37.0,32.1,29.0,91,77,73,29.90,29.61,11,7,32,0.02
2015-1-18,43.0,35.3,29.0,34.0,30.6,27.0,93,83,69,30.01,29.75,11,4,23,0.01
2015-1-19,44.0,33.5,25.0,37.0,30.6,23.0,96,89,71,30.02,29.85,6,2,32,0.02
2015-1-20,37.0,34.4,31.0,35.0,32.5,29.0,96,92,91,30.00,29.82,6,2,11,0.02
2015-1-21,35.0,33.2,31.0,33.0,31.2,30.0,97,94,89,30.28,29.93,8,2,15,0.02
2015-1-22,32.0,30.5,29.0,30.0,27.7,26.0,97,89,84,30.47,30.28,6,2,12,0.01
2015-1-23,36.0,30.6,28.0,30.0,26.5,24.0,87,84,77,30.39,29.85,9,6,18,0.01
2015-1-24,47.0,35.3,27.0,39.0,31.5,25.0,96,84,74,29.83,29.60,8,3,14,0.00
2015-1-25,36.0,29.4,18.0,35.0,26.2,14.0,96,89,76,30.07,29.58,10,5,26,0.01
2015-1-26,30.0,23.1,13.0,29.0,20.8,10.0,96,89,80,30.06,29.80,7,2,16,0.01
2015-1-27,30.0,28.4,27.0,29.0,25.0,22.0,96,87,81,30.25,29.91,8,2,14,0.03
2015-1-28,37.0,31.4,25.0,33.0,27.7,22.0,91,86,79,30.25,29.70,10,6,32,0.05
2015-1-29,37.0,34.1,28.0,34.0,30.1,22.0,91,84,75,30.40,29.66,13,7,32,0.01
2015-1-30,30.0,23.9,18.0,21.0,16.8,12.0,89,74,62,30.57,30.35,7,2,32,0.00
2015-1-31,37.0,30.3,22.0,34.0,26.9,17.0,98,88,77,30.35,30.08,8,3,32,0.13
2015-2-1,32.0,31.8,31.0,31.0,30.8,30.0,97,97,95,30.05,29.84,0,0,5,0.13
2015-2-2,15.0,10.4,0.0,10.0,7.1,-1.0,96,87,77,30.29,29.84,0,0,1,0.16
2015-2-3,26.0,17.7,10.0,22.0,14.5,6.0,95,85,83,30.20,29.99,0,0,0,0.02
2015-2-4,21.0,15.0,4.0,17.0,10.0,-2.0,91,80,74,30.46,30.17,6,2,14,0.01
2015-2-5,14.0,5.4,-7.0,8.0,-0.1,-11.0,99,78,69,30.52,30.27,9,2,17,0.00
2015-2-6,34.0,22.8,10.0,28.0,17.3,4.0,90,79,74,30.27,29.94,8,3,17,0.10
2015-2-7,45.0,35.0,24.0,40.0,31.8,22.0,98,86,80,29.94,29.60,9,4,15,0.37
2015-2-8,40.0,34.4,25.0,38.0,31.4,21.0,96,89,78,30.04,29.59,8,4,17,0.01
2015-2-9,28.0,24.2,17.0,22.0,19.3,13.0,93,82,76,30.28,30.04,7,4,89,0.00
2015-2-10,30.0,23.7,13.0,27.0,20.6,11.0,93,88,79,30.28,30.03,7,3,89,0.00
2015-2-11,34.0,27.0,13.0,32.0,22.4,7.0,91,82,74,30.25,30.00,13,7,35,0.00
2015-2-12,15.0,10.3,5.0,7.0,3.4,-1.0,82,73,65,30.57,30.25,11,4,87,0.00
2015-2-13,30.0,20.0,5.0,24.0,14.3,1.0,87,79,67,30.43,29.97,12,4,32,0.00
2015-2-14,29.0,13.4,0.0,24.0,3.8,-11.0,84,65,52,30.54,29.95,14,7,33,0.01
2015-2-15,12.0,6.3,-1.0,7.0,-2.2,-11.0,80,68,60,30.60,30.39,6,2,15,0.01
2015-2-16,21.0,18.0,12.0,12.0,9.2,7.0,84,68,61,30.23,30.03,4,1,32,0.00
2015-2-17,21.0,15.4,11.0,15.0,8.7,4.0,82,74,67,30.05,29.95,10,6,33,0.00
2015-2-18,12.0,3.4,-1.0,7.0,-3.9,-8.0,85,71,63,30.32,29.93,13,7,35,0.00
2015-2-19,8.0,0.3,-6.0,-4.0,-8.2,-12.0,78,68,52,30.45,30.32,6,2,35,0.00
2015-2-20,28.0,15.3,-1.0,17.0,7.6,-7.0,80,71,59,30.35,29.90,12,5,34,0.00
2015-2-21,32.0,26.0,21.0,28.0,21.9,15.0,93,83,74,30.23,29.88,8,3,32,0.00
2015-2-22,21.0,9.3,-1.0,15.0,1.7,-8.0,80,71,59,30.74,30.23,10,6,32,0.00
2015-2-23,13.0,2.9,-7.0,-1.0,-6.7,-13.0,76,64,50,30.78,30.28,5,2,32,0.00
2015-2-24,38.0,22.3,6.0,29.0,13.6,-2.0,74,69,63,30.28,29.76,13,7,32,0.00
2015-2-25,24.0,18.7,14.0,17.0,12.2,7.0,91,76,58,30.06,29.89,8,4,32,0.00
2015-2-26,16.0,10.0,-2.0,11.0,4.0,-8.0,88,76,62,30.51,30.06,8,5,32,0.00
2015-2-27,15.0,1.5,-9.0,3.0,-4.9,-12.0,89,75,55,30.68,30.51,5,2,32,0.00
2015-2-28,21.0,8.4,-8.0,13.0,2.6,-13.0,93,78,60,30.68,30.38,5,1,32,0.00
2015-3-1,29.0,19.1,8.0,22.0,14.5,5.0,94,83,72,30.43,30.32,7,2,32,0.02
2015-3-2,30.0,21.8,12.0,21.0,16.1,8.0,92,79,60,30.54,30.21,7,2,32,0.02
2015-3-3,35.0,30.1,23.0,34.0,26.8,17.0,95,88,79,30.21,29.68,11,6,32,0.20
2015-3-4,22.0,14.2,10.0,16.0,5.7,1.0,80,68,58,30.42,29.96,11,5,32,0.01
2015-3-5,14.0,6.9,-1.0,6.0,-0.5,-7.0,81,71,62,30.57,30.42,7,3,32,0.11
2015-3-6,37.0,20.9,1.0,27.0,13.6,-4.0,84,74,66,30.55,30.09,10,5,32,0.00
2015-3-7,46.0,38.2,31.0,37.0,31.7,27.0,93,78,62,30.19,30.04,10,4,32,0.00
2015-3-8,47.0,36.4,30.0,36.0,29.9,24.0,98,79,53,30.23,30.11,8,1,32,0.00
2015-3-9,50.0,37.5,25.0,41.0,32.1,23.0,95,82,59,30.18,30.06,6,2,32,0.00
2015-3-10,56.0,42.5,33.0,45.0,38.3,32.0,99,87,62,30.06,29.95,8,2,32,0.00
2015-3-11,56.0,45.7,38.0,42.0,38.1,33.0,98,77,53,30.40,30.05,7,3,32,0.00
2015-3-12,62.0,44.9,31.0,50.0,38.3,28.0,96,79,54,30.43,30.28,7,4,32,0.00
2015-3-13,67.0,50.5,36.0,52.0,43.1,34.0,96,77,51,30.27,30.02,5,1,32,0.00
2015-3-14,61.0,49.5,41.0,46.0,40.2,37.0,89,71,49,30.20,30.02,9,5,32,0.00
2015-3-15,66.0,51.9,33.0,46.0,38.0,31.0,96,64,37,30.25,29.99,11,5,32,0.00
2015-3-16,79.0,61.0,48.0,52.0,43.5,37.0,70,52,34,30.03,29.75,15,6,32,0.00
2015-3-17,55.0,43.8,35.0,43.0,25.7,14.0,79,52,29,30.41,29.95,10,5,32,0.00
2015-3-18,49.0,40.7,35.0,29.0,23.9,20.0,70,52,34,30.35,30.21,7,1,32,0.00
2015-3-19,49.0,41.8,33.0,35.0,29.9,25.0,84,64,43,30.22,29.48,7,2,32,0.00
2015-3-20,59.0,42.8,37.0,45.0,36.0,34.0,91,76,50,30.11,30.02,9,4,80,0.00
2015-3-21,58.0,31.9,40.0,42.0,23.8,20.0,94,58,33,30.20,30.00,7,4,80,0.00
2015-3-22,49.0,33.1,29.0,34.0,24.0,22.0,89,60,49,30.24,30.14,14,6,32,0.00
2015-3-23,33.0,27.5,30.0,30.0,24.7,22.0,93,85,70,30.25,30.12,8,5,64,0.17
2015-3-24,37.0,32.5,27.0,35.0,28.3,23.0,94,85,76,30.25,29.93,9,5,35,0.29
2015-3-25,45.0,38.6,35.0,39.0,35.5,31.0,98,88,78,30.09,29.84,10,4,32,0.38
2015-3-26,46.0,36.3,30.0,30.0,26.9,22.0,87,69,48,30.12,30.01,11,5,32,0.00
2015-3-27,37.0,30.0,24.0,25.0,16.6,9.0,81,59,34,30.23,30.11,9,4,32,0.00
2015-3-28,44.0,31.1,20.0,25.0,18.5,14.0,88,63,34,30.34,30.21,6,2,89,0.07
2015-3-29,56.0,40.4,29.0,46.0,31.5,19.0,84,70,57,30.22,29.79,14,7,33,0.12
2015-6-14,71.0,71.0,71.0,70.0,70.0,70.0,96,96,96,29.87,29.87,1,1,6,0.00
2015-6-17,61.0,61.0,61.0,58.0,58.0,58.0,90,90,90,30.02,30.02,2,2,32,0.00
2015-6-20,85.0,70.4,56.0,75.0,64.8,53.0,94,83,68,29.94,29.73,8,2,32,0.00
2015-6-21,86.0,75.0,67.0,77.0,70.3,65.0,96,86,72,29.96,29.79,5,2,32,0.00
2015-6-22,80.0,74.2,68.0,76.0,70.7,63.0,96,90,81,29.94,29.71,8,2,32,0.00
2015-6-23,81.0,72.2,64.0,75.0,62.2,56.0,96,72,54,30.12,29.82,8,3,50,0.00
2015-6-24,74.0,66.2,61.0,69.0,63.7,59.0,96,91,84,30.20,29.99,7,1,50,0.00
2015-6-25,81.0,71.9,66.0,73.0,67.6,62.0,94,87,78,30.01,29.87,8,2,32,0.00
2015-6-26,71.0,67.0,64.0,67.0,63.4,57.0,94,88,79,30.02,29.92,7,1,32,0.00
2015-6-27,81.0,68.6,60.0,66.0,60.7,56.0,92,77,55,30.04,29.97,5,1,162,0.00
2015-6-28,77.0,66.8,60.0,69.0,63.3,58.0,94,89,74,29.97,29.78,7,1,162,0.00
2015-6-29,81.0,68.4,60.0,72.0,64.5,59.0,98,88,70,29.86,29.79,6,1,32,0.00
2015-6-30,81.0,70.3,61.0,68.0,63.3,57.0,96,80,62,29.90,29.80,6,1,32,0.00
2015-7-1,76.0,66.8,62.0,68.0,61.5,55.0,96,83,71,29.96,29.88,6,2,32,0.00
2015-7-2,73.0,63.3,54.0,62.0,56.5,51.0,90,79,65,30.01,29.95,7,2,32,0.00
2015-7-3,79.0,67.6,56.0,66.0,60.0,52.0,92,78,60,29.99,29.92,3,1,32,0.00
2015-7-4,82.0,69.3,57.0,69.0,62.2,55.0,96,80,58,30.02,29.95,5,0,32,0.00
2015-7-5,85.0,72.9,62.0,73.0,66.7,59.0,92,82,66,30.06,29.95,5,2,32,0.00
2015-7-6,85.0,73.4,68.0,80.0,70.1,65.0,96,90,81,29.96,29.81,8,3,32,0.00
2015-7-7,73.0,66.4,61.0,69.0,59.5,52.0,94,79,63,30.09,29.85,11,2,32,0.00
2015-7-8,66.0,60.8,56.0,59.0,56.3,54.0,92,86,72,30.11,29.94,7,2,32,0.00
2015-7-9,79.0,67.5,60.0,63.0,59.4,55.0,94,78,53,30.05,29.93,5,1,32,0.00
2015-7-10,82.0,69.4,59.0,70.0,62.3,57.0,94,80,60,30.13,30.05,5,0,32,0.00
2015-7-11,81.0,69.8,64.0,75.0,66.9,61.0,96,91,81,30.11,29.99,8,2,32,0.00
2015-7-12,89.0,76.7,67.0,83.0,73.4,65.0,98,90,80,30.01,29.84,5,1,32,0.00
2015-7-13,95.0,80.1,70.0,87.0,75.5,64.0,93,86,73,29.84,29.60,9,3,32,0.00
2015-7-14,87.0,77.6,70.0,74.0,68.7,63.0,91,75,59,29.87,29.62,8,2,89,0.00
2015-7-15,79.0,70.2,60.0,69.0,63.0,56.0,93,79,63,30.03,29.87,5,1,89,0.00
2015-7-16,79.0,70.0,61.0,75.0,67.2,59.0,94,91,85,30.02,29.76,8,3,159,0.00
2015-7-17,94.0,82.0,72.0,84.0,76.6,69.0,94,85,69,29.79,29.75,5,2,159,0.00
2015-7-18,91.0,82.2,76.0,82.0,76.6,72.0,94,84,62,29.87,29.79,9,3,32,0.00
2015-7-19,84.0,77.1,68.0,75.0,71.0,62.0,94,82,63,29.99,29.85,6,2,32,0.00
2015-7-20,85.0,75.8,66.0,78.0,70.8,61.0,96,85,71,29.92,29.77,7,2,88,0.00
2015-7-21,81.0,71.3,62.0,65.0,59.9,54.0,90,69,50,29.97,29.83,6,1,88,0.00
2015-7-22,83.0,69.7,59.0,68.0,61.8,57.0,94,79,56,29.99,29.94,3,0,32,0.00
2015-7-23,85.0,72.4,61.0,70.0,64.8,59.0,96,79,56,30.03,29.97,5,0,32,0.00
2015-7-24,85.0,73.9,62.0,76.0,68.2,60.0,93,83,67,30.08,29.83,8,1,32,0.00
2015-7-25,91.0,78.8,71.0,82.0,73.6,68.0,91,85,73,29.98,29.90,6,1,32,0.00
2015-7-26,85.0,76.4,71.0,79.0,72.3,68.0,94,88,76,29.93,29.89,6,2,32,0.00
2015-7-27,87.0,76.4,66.0,78.0,71.8,64.0,94,86,70,29.99,29.93,6,1,32,0.00
2015-7-28,85.0,76.8,68.0,80.0,73.7,66.0,94,91,85,29.98,29.88,5,1,32,0.00
2015-7-29,84.0,77.1,66.0,75.0,67.0,55.0,94,74,46,30.08,29.91,8,2,32,0.00
2015-7-30,89.0,74.3,62.0,70.0,65.0,59.0,92,75,46,30.12,30.04,6,2,87,0.00
2015-7-31,86.0,75.7,66.0,72.0,63.4,55.0,94,69,42,30.08,30.00,8,2,87,0.00
2015-8-1,87.0,73.8,61.0,71.0,65.4,59.0,94,77,53,30.05,29.91,8,2,89,0.00
2015-8-2,90.0,79.2,67.0,79.0,71.7,65.0,94,79,65,29.91,29.70,12,4,89,0.00
2015-8-3,82.0,73.7,64.0,73.0,61.9,55.0,89,69,44,29.95,29.75,6,2,32,0.00
2015-8-4,81.0,70.0,59.0,69.0,62.2,57.0,94,78,56,30.04,29.94,6,1,84,0.00
2015-8-5,83.0,70.9,61.0,71.0,64.1,59.0,94,81,64,30.06,29.97,5,1,84,0.00
2015-8-6,86.0,71.9,60.0,70.0,63.7,57.0,92,77,53,29.97,29.88,5,1,64,0.00
2015-8-7,85.0,73.0,64.0,77.0,66.5,60.0,93,81,65,29.92,29.81,7,2,32,0.00
2015-8-8,79.0,72.5,66.0,72.0,67.9,64.0,96,86,74,29.98,29.84,5,0,32,0.00
2015-8-9,83.0,72.5,66.0,78.0,69.1,64.0,96,89,75,29.97,29.87,7,1,32,0.00
2015-8-10,83.0,74.2,69.0,79.0,69.6,63.0,96,86,70,29.94,29.85,6,2,32,0.00
2015-8-11,83.0,72.5,64.0,67.0,63.5,58.0,94,75,54,30.12,29.93,7,2,175,0.00
2015-8-12,82.0,70.6,60.0,66.0,61.8,55.0,94,76,50,30.21,30.12,5,1,175,0.00
2015-8-13,84.0,72.1,61.0,71.0,65.6,59.0,94,81,63,30.14,30.05,8,2,159,0.00
2015-8-14,89.0,77.0,69.0,77.0,70.8,66.0,93,82,63,30.17,30.07,5,1,32,0.00
2015-8-15,89.0,77.1,68.0,76.0,70.6,66.0,94,81,63,30.15,30.06,5,1,32,0.00
2015-8-16,88.0,77.4,69.0,75.0,70.7,66.0,93,80,61,30.11,30.01,7,2,32,0.00
2015-8-17,88.0,75.4,67.0,77.0,69.6,65.0,94,83,62,30.05,29.92,7,1,83,0.00
2015-8-18,85.0,71.6,64.0,78.0,69.1,63.0,98,92,80,29.93,29.65,6,2,83,0.00
2015-8-19,71.0,64.3,58.0,69.0,59.4,54.0,94,85,74,29.77,29.62,10,4,83,0.00
2015-8-20,76.0,65.1,57.0,59.0,55.7,52.0,94,74,50,30.00,29.77,10,4,32,0.00
2015-8-21,83.0,69.7,58.0,67.0,60.4,54.0,94,74,52,30.07,30.00,7,2,32,0.00
2015-8-22,79.0,69.4,60.0,68.0,63.0,57.0,92,81,67,30.06,29.89,7,3,96,0.00
2015-8-23,75.0,67.8,60.0,67.0,58.7,48.0,96,74,56,30.01,29.83,9,5,96,0.00
2015-8-24,74.0,63.1,52.0,58.0,52.7,49.0,92,70,53,30.05,29.99,11,4,89,0.00
2015-8-25,75.0,65.2,54.0,62.0,54.9,49.0,88,70,57,30.10,30.03,8,3,89,0.00
2015-8-26,77.0,65.6,56.0,60.0,57.5,53.0,94,77,53,30.20,30.08,6,1,32,0.00
2015-8-27,77.0,64.4,53.0,67.0,59.1,51.0,96,84,69,30.19,30.06,5,1,32,0.00
2015-8-28,73.0,65.4,60.0,68.0,61.9,57.0,94,88,83,30.12,29.96,5,1,32,0.00
2015-8-29,75.0,68.0,64.0,71.0,64.8,61.0,98,90,81,30.04,29.94,5,1,32,0.00
2015-8-30,78.0,67.8,61.0,72.0,64.0,60.0,98,89,70,30.10,30.00,3,0,143,0.00
2015-8-31,88.0,74.0,62.0,78.0,69.5,60.0,98,87,68,30.05,29.97,5,1,143,0.00
2015-9-1,90.0,79.5,70.0,78.0,72.7,68.0,94,81,64,30.04,29.97,7,2,32,0.00
2015-9-2,87.0,77.3,69.0,78.0,70.8,66.0,91,81,69,30.06,29.93,6,1,32,0.00
2015-9-3,92.0,79.2,69.0,77.0,71.7,66.0,91,79,57,29.96,29.88,6,2,32,0.00
2015-9-4,92.0,79.6,69.0,76.0,71.9,67.0,94,79,56,30.01,29.92,3,0,32,0.00
2015-9-5,91.0,79.2,73.0,80.0,72.1,68.0,91,80,62,30.08,30.00,4,1,80,0.00
2015-9-6,93.0,80.4,70.0,77.0,70.4,65.0,91,73,53,30.03,29.91,7,2,80,0.00
2015-9-7,89.0,78.0,70.0,77.0,70.8,63.0,94,79,61,30.01,29.92,8,1,112,0.00
2015-9-8,78.0,74.1,68.0,75.0,70.3,63.0,94,88,74,29.94,29.79,10,2,112,0.00
2015-9-9,82.0,70.3,63.0,66.0,61.9,54.0,96,77,46,30.04,29.93,5,1,88,0.00
2015-9-10,75.0,66.1,61.0,69.0,60.9,54.0,96,84,62,29.95,29.89,6,1,88,0.00
2015-9-11,70.0,61.8,55.0,62.0,53.0,44.0,96,75,50,30.11,29.95,9,3,88,0.00
2015-9-12,67.0,57.7,49.0,53.0,46.8,37.0,92,69,44,30.13,30.04,9,2,89,0.00
2015-9-13,74.0,58.6,46.0,55.0,49.0,42.0,94,73,46,30.09,29.94,6,1,89,0.00
2015-9-14,84.0,68.3,55.0,64.0,55.9,46.0,76,65,49,30.04,29.95,10,3,88,0.00
2015-9-15,84.0,71.4,61.0,65.0,58.1,52.0,82,65,45,30.14,30.04,7,3,32,0.00
2015-9-16,87.0,73.3,63.0,70.0,62.1,56.0,80,69,55,30.16,30.02,9,3,32,0.00
2015-9-17,83.0,73.9,66.0,74.0,66.6,61.0,94,78,67,30.03,29.78,8,3,32,0.00
2015-9-18,76.0,69.4,66.0,71.0,67.1,61.0,96,92,76,29.87,29.73,10,2,77,0.00
2015-9-19,71.0,60.8,51.0,62.0,52.7,43.0,94,77,44,30.13,29.77,10,4,89,0.00
2015-9-20,75.0,59.4,47.0,58.0,49.9,45.0,96,75,43,30.20,30.08,5,1,89,0.00
2015-9-21,79.0,62.8,49.0,61.0,53.1,47.0,94,73,46,30.14,30.03,6,1,89,0.00
2015-9-22,82.0,66.0,53.0,66.0,58.7,50.0,94,79,57,30.19,30.07,4,0,32,0.00
2015-9-23,84.0,67.4,57.0,64.0,58.8,55.0,96,77,45,30.25,30.15,4,1,32,0.00
2015-9-24,84.0,67.8,57.0,66.0,59.0,54.0,92,76,45,30.23,30.17,5,1,32,0.00
2015-9-25,80.0,67.1,57.0,68.0,58.7,54.0,94,77,51,30.25,30.16,6,1,32,0.00
2015-9-26,81.0,67.0,57.0,67.0,59.7,55.0,96,79,52,30.24,30.11,8,2,32,0.00
2015-9-27,76.0,67.6,59.0,68.0,62.2,55.0,94,83,69,30.13,29.98,4,0,32,0.00
2015-9-28,82.0,71.3,66.0,71.0,66.0,60.0,96,84,66,30.02,29.91,4,0,32,0.00
2015-9-29,67.0,62.0,52.0,64.0,56.7,42.0,94,83,67,30.16,29.92,7,2,32,0.00
2015-9-30,66.0,53.4,46.0,50.0,44.0,40.0,87,72,50,30.27,30.16,6,2,89,0.00
2015-10-1,65.0,53.8,44.0,50.0,43.0,37.0,89,68,51,30.35,30.27,8,2,89,0.00
2015-10-2,66.0,53.1,43.0,49.0,42.0,38.0,87,68,38,30.35,30.23,11,3,64,0.00
2015-10-3,62.0,51.9,43.0,47.0,41.9,37.0,85,70,53,30.26,30.12,8,3,32,0.00
2015-10-4,57.0,52.9,50.0,52.0,48.6,44.0,91,85,77,30.21,30.17,6,2,32,0.00
2015-10-5,67.0,58.5,53.0,61.0,54.3,49.0,92,86,78,30.20,30.13,5,1,32,0.00
2015-10-6,75.0,64.3,59.0,63.0,57.8,53.0,92,80,60,30.19,30.10,4,0,32,0.00
2015-10-7,78.0,65.9,58.0,63.0,57.6,54.0,94,77,49,30.17,30.08,5,0,32,0.00
2015-10-8,80.0,66.2,53.0,66.0,58.5,51.0,96,78,59,30.09,29.87,9,3,32,0.00
2015-10-9,63.0,55.0,46.0,53.0,47.4,39.0,91,76,61,30.25,29.98,8,3,32,0.00
2015-10-10,66.0,52.8,41.0,52.0,45.3,39.0,98,78,56,30.26,29.97,8,2,89,0.00
2015-10-11,81.0,64.9,50.0,63.0,53.6,43.0,84,68,54,29.97,29.60,10,4,89,0.00
2015-10-12,75.0,66.5,58.0,61.0,50.8,41.0,84,59,36,29.65,29.53,14,5,32,0.00
2015-10-13,66.0,55.6,47.0,50.0,43.1,37.0,87,64,40,29.89,29.65,11,5,89,0.00
2015-10-14,66.0,51.8,40.0,48.0,42.0,38.0,93,72,42,30.08,29.89,8,1,96,0.00
2015-10-15,72.0,55.8,49.0,47.0,37.6,20.0,83,54,20,30.22,30.02,12,3,96,0.00
2015-10-16,55.0,46.3,39.0,36.0,30.8,24.0,69,55,39,30.39,30.22,8,4,86,0.00
2015-10-17,55.0,41.7,31.0,34.0,28.3,21.0,82,62,36,30.54,30.39,7,1,88,0.00
2015-10-18,63.0,47.1,32.0,38.0,31.8,29.0,89,59,32,30.51,30.26,7,2,88,0.00
2015-10-19,78.0,60.8,49.0,45.0,38.9,31.0,59,46,29,30.26,29.96,13,5,32,0.00
2015-10-20,75.0,62.9,56.0,58.0,46.4,40.0,94,58,39,30.09,29.99,12,4,32,0.00
2015-10-21,74.0,65.4,59.0,64.0,56.2,50.0,88,73,64,30.12,30.02,10,4,32,0.00
2015-10-22,65.0,57.0,52.0,54.0,49.1,44.0,84,74,63,30.29,30.15,6,2,32,0.00
2015-10-23,64.0,57.6,52.0,62.0,51.9,43.0,96,82,70,30.20,29.86,7,4,32,0.00
2015-10-24,66.0,56.4,45.0,64.0,52.9,42.0,93,88,77,30.20,29.80,13,5,32,0.00
2015-10-25,62.0,48.4,38.0,50.0,41.4,37.0,96,79,46,30.39,30.20,4,1,82,0.00
2015-10-26,64.0,49.1,37.0,47.0,40.9,35.0,94,75,49,30.38,30.25,6,2,82,0.00
2015-10-27,52.0,48.8,46.0,51.0,45.4,40.0,96,88,73,30.25,29.71,7,4,32,0.00
2015-10-28,53.0,47.6,38.0,52.0,43.9,30.0,96,87,69,29.71,29.47,13,5,32,0.00
2015-10-29,48.0,42.3,37.0,43.0,36.2,29.0,87,79,71,30.01,29.60,12,6,88,0.00
2015-10-30,56.0,44.1,36.0,49.0,40.3,35.0,99,87,68,30.15,30.00,6,2,88,0.00
2015-10-31,53.0,49.1,46.0,50.0,46.5,43.0,96,90,81,30.00,29.66,8,4,32,0.00
2015-11-1,69.0,54.6,43.0,55.0,47.2,41.0,94,77,58,29.95,29.78,6,4,32,0.00
2015-11-2,74.0,59.3,50.0,55.0,46.9,43.0,80,65,42,29.98,29.90,9,4,32,0.00
2015-11-3,67.0,54.3,46.0,60.0,50.4,44.0,98,87,67,30.11,29.98,8,3,32,0.00
2015-11-4,73.0,60.5,53.0,65.0,57.2,52.0,96,89,71,30.10,30.00,9,4,32,0.00
2015-11-5,72.0,61.6,53.0,64.0,58.1,52.0,96,88,75,30.02,29.69,12,6,32,0.00
2015-11-6,57.0,46.6,39.0,55.0,41.3,36.0,94,82,66,30.22,29.70,12,5,32,0.00
2015-11-7,52.0,40.6,35.0,42.0,34.8,31.0,93,80,55,30.43,30.22,11,2,89,0.00
2015-11-8,54.0,41.4,30.0,41.0,33.8,28.0,96,77,49,30.44,30.28,8,2,89,0.00
2015-11-9,56.0,39.6,29.0,40.0,31.8,26.0,93,75,43,30.27,30.14,5,0,32,0.00
2015-11-10,58.0,43.7,30.0,42.0,34.9,28.0,93,73,46,30.14,29.92,8,1,32,0.00
2015-11-11,62.0,55.7,45.0,56.0,49.0,38.0,84,79,70,29.88,29.35,15,6,33,0.00
2015-11-12,50.0,46.6,44.0,42.0,40.9,40.0,89,81,75,29.75,29.36,15,11,52,0.00
2015-11-13,49.0,40.9,31.0,29.0,25.1,20.0,84,55,37,30.26,30.16,13,4,31,0.00
2015-11-14,65.0,46.9,29.0,42.0,34.2,25.0,91,64,42,30.26,30.12,10,4,32,0.00
2015-11-15,66.0,53.7,41.0,44.0,37.5,31.0,76,55,40,30.23,30.10,11,5,32,0.00
2015-11-16,53.0,51.1,49.0,48.0,43.2,35.0,94,76,51,30.10,29.92,10,6,32,0.00
2015-11-17,62.0,55.3,50.0,60.0,53.3,48.0,96,93,90,29.92,29.48,15,7,71,0.00
2015-11-18,62.0,52.6,45.0,59.0,47.4,39.0,94,83,70,29.64,29.36,17,9,41,0.00
2015-11-19,46.0,40.4,34.0,41.0,27.9,20.0,83,62,42,30.18,29.64,13,7,89,0.00
2015-11-20,39.0,34.2,29.0,30.0,23.8,17.0,93,67,40,30.32,30.15,10,3,89,0.00
2015-11-21,32.0,25.2,10.0,31.0,22.1,6.0,96,88,80,30.24,30.03,10,6,32,0.00
2015-11-22,32.0,20.3,6.0,26.0,16.0,4.0,93,84,69,30.24,29.94,8,3,96,0.00
2015-11-23,43.0,32.7,23.0,36.0,28.2,21.0,95,84,69,30.22,29.91,7,2,96,0.00
2015-11-24,41.0,34.0,26.0,36.0,31.1,24.0,96,89,78,30.28,30.12,7,2,32,0.00
2015-11-25,51.0,44.3,39.0,46.0,37.9,31.0,85,79,71,30.12,30.06,9,5,32,0.00
2015-11-26,60.0,53.0,42.0,57.0,50.0,39.0,98,90,83,30.18,30.06,11,5,32,0.00
2015-11-27,42.0,35.8,32.0,40.0,32.7,28.0,94,88,84,30.46,30.18,9,6,89,0.00
2015-11-28,35.0,31.7,29.0,30.0,27.8,26.0,89,85,81,30.46,30.36,7,3,89,0.00
2015-11-29,37.0,32.9,28.0,33.0,27.3,24.0,91,79,68,30.39,30.25,6,2,89,0.00
2015-11-30,40.0,37.9,35.0,39.0,35.2,32.0,96,90,82,30.25,29.87,8,4,89,0.00
2015-12-1,42.0,37.4,32.0,40.0,34.1,30.0,96,88,76,29.87,29.77,13,5,32,0.00
2015-12-2,35.0,32.4,29.0,31.0,28.4,26.0,96,85,77,30.11,29.74,10,3,32,0.00
2015-12-3,37.0,33.3,29.0,34.0,30.7,26.0,98,90,89,30.41,30.11,6,3,89,0.00
2015-12-4,50.0,36.3,28.0,41.0,32.9,27.0,96,88,68,30.54,30.41,8,2,175,0.00
2015-12-5,48.0,36.8,29.0,39.0,32.9,27.0,94,86,65,30.57,30.39,8,4,175,0.00
2015-12-6,44.0,37.1,32.0,37.0,33.7,29.0,96,88,72,30.40,30.20,5,2,35,0.00
2015-12-7,39.0,34.5,29.0,37.0,32.9,28.0,99,94,84,30.26,29.97,8,3,32,0.00
2015-12-8,47.0,40.3,33.0,43.0,37.0,31.0,93,88,80,29.97,29.67,8,4,32,0.00
2015-12-9,52.0,42.1,33.0,42.0,37.2,31.0,96,83,64,29.79,29.66,7,3,32,0.00
2015-12-10,57.0,48.9,41.0,46.0,40.5,35.0,80,73,65,29.71,29.46,15,8,36,0.00
2015-12-11,53.0,46.0,38.0,51.0,40.7,33.0,96,82,68,29.79,29.61,8,2,36,0.00
2015-12-12,61.0,55.7,51.0,60.0,53.5,50.0,98,93,82,29.91,29.73,5,1,32,0.00
2015-12-13,62.0,60.5,59.0,60.0,58.2,54.0,96,92,84,29.86,29.33,11,7,32,0.00
2015-12-14,61.0,48.2,39.0,59.0,45.1,36.0,94,89,80,29.64,29.14,16,8,32,0.00
2015-12-15,41.0,38.8,37.0,39.0,35.3,33.0,96,87,84,29.91,29.64,10,4,32,0.00
2015-12-16,52.0,41.9,32.0,48.0,36.7,25.0,96,82,57,29.78,29.54,15,8,35,0.00
2015-12-17,35.0,31.3,28.0,27.0,23.9,22.0,79,74,63,30.01,29.78,14,6,35,0.00
2015-12-18,37.0,27.2,20.0,22.0,17.2,11.0,79,66,52,30.22,29.95,14,7,32,0.00
2015-12-19,33.0,23.6,16.0,22.0,15.4,11.0,80,72,52,30.43,30.22,11,4,32,0.00
2015-12-20,53.0,43.1,29.0,41.0,32.6,22.0,87,67,56,30.24,29.77,12,6,32,0.00
2015-12-21,52.0,43.3,36.0,50.0,41.2,34.0,94,93,87,29.82,29.62,10,5,32,0.00
2015-12-22,42.0,35.8,32.0,40.0,33.2,29.0,93,90,89,29.86,29.61,8,4,32,0.00
2015-12-23,60.0,48.6,39.0,57.0,45.7,35.0,96,90,80,29.61,28.99,15,7,38,0.00
2015-12-24,41.0,36.1,31.0,35.0,32.2,27.0,94,85,76,30.05,29.50,10,3,38,0.00
2015-12-25,37.0,33.1,30.0,34.0,30.8,28.0,95,90,87,30.33,30.05,7,3,32,0.00
2015-12-26,40.0,37.3,33.0,39.0,35.6,31.0,96,93,89,30.23,29.99,11,5,32,0.00
2015-12-27,37.0,35.3,33.0,35.0,31.1,27.0,94,85,77,30.36,27.97,10,6,32,0.00
2015-12-28,33.0,32.4,31.0,32.0,29.6,27.0,96,89,80,30.31,29.47,16,5,33,0.00
2015-12-29,32.0,28.6,27.0,31.0,25.8,23.0,96,90,84,30.18,29.54,0,0,33,0.00
2015-12-30,30.0,26.7,25.0,27.0,23.9,21.0,91,89,84,30.26,30.18,0,0,32,0.00
2015-12-31,28.0,25.1,21.0,24.0,20.8,15.0,91,84,74,30.35,30.26,0,0,32,0.00
2016-1-1,31.0,26.4,20.0,25.0,20.9,15.0,86,80,72,30.30,30.14,0,0,32,0.00
2016-1-2,32.0,25.8,19.0,26.0,21.0,16.0,90,82,75,30.18,30.02,11,3,32,0.00